GW5002 Weather Reports


Display with metric or nautical units.
time (UTC)temp
F
wind
direction
speed
MPH
gust
MPH
rain 1hr
in
rain 24hr
in
rain mn
in
humidity
%
barometer
mb
20260506154520 78 234 0.0 0.0 0.00 0.00 0.00 66 1017.0
20260506153020 78 224 0.0 0.0 0.00 0.00 0.00 65 1017.2
20260506151524 79 300 0.0 0.0 0.00 0.00 0.00 64 1017.2
20260506150012 78 208 0.0 0.0 0.00 0.00 0.00 58 1017.1
20260506144515 78 222 0.0 0.0 0.00 0.00 0.00 58 1016.9
20260506143028 78 212 0.0 0.0 0.00 0.00 0.00 63 1016.7
20260506141526 77 222 0.0 0.0 0.00 0.00 0.00 63 1016.7
20260506140026 76 221 0.0 0.0 0.00 0.00 0.00 62 1016.8
20260506134513 76 217 0.0 0.0 0.00 0.00 0.00 64 1016.5
20260506133019 75 220 0.0 0.0 0.00 0.00 0.00 67 1016.4
20260506131525 75 221 0.0 0.0 0.00 0.00 0.00 70 1016.4
20260506130030 0 0.0 0.0 0.00 0.00 0.00 1016.2
20260506124526 0 0.0 0.0 0.00 0.00 0.00 1016.1
20260506123030 0 0.0 0.0 0.00 0.00 0.00 1016.1
20260506121528 0 0.0 0.0 0.00 0.00 0.00 1016.2
20260506120038 0 0.0 0.0 0.00 0.00 0.00 1016.1
20260506114526 0 0.0 0.0 0.00 0.00 0.00 1015.9
20260506113032 0 0.0 0.0 0.00 0.00 0.00 1015.9
20260506111528 0 0.0 0.0 0.00 0.00 0.00 1015.6
20260506110031 0 0.0 0.0 0.00 0.00 0.00 1015.6
20260506104530 0 0.0 0.0 0.00 0.00 0.00 1015.7
20260506103030 0 0.0 0.0 0.00 0.00 0.00 1015.4
20260506101526 0 0.0 0.0 0.00 0.00 0.00 1015.5
20260506100028 0 0.0 0.0 0.00 0.00 0.00 1015.4
20260506094528 0 0.0 0.0 0.00 0.00 0.00 1015.4
20260506093029 0 0.0 0.0 0.00 0.00 0.00 1015.5
20260506091532 0 0.0 0.0 0.00 0.00 0.00 1015.5
20260506090041 0 0.0 0.0 0.00 0.00 0.00 1015.5
20260506084526 0 0.0 0.0 0.00 0.00 0.00 1015.6
20260506083032 0 0.0 0.0 0.00 0.00 0.00 1015.6
20260506081531 0 0.0 0.0 0.00 0.00 0.00 1015.6
20260506073015 66 187 0.0 0.0 0.00 0.00 0.00 83 1015.4
20260506071519 66 166 0.0 0.0 0.00 0.00 0.00 80 1015.4
20260506061540 68 191 0.0 0.0 0.00 0.00 0.00 79 1015.7
20260506044524 67 215 0.0 0.0 0.00 0.00 0.00 75 1016.5
20260506043017 68 228 0.0 0.0 0.00 0.00 0.00 75 1016.5
20260506041515 68 231 0.0 0.0 0.00 0.00 0.00 74 1016.6
20260506040020 68 202 0.0 0.0 0.00 0.00 0.00 74 1016.5
20260506034527 68 231 0.0 0.0 0.00 0.00 0.00 73 1016.5
20260506033027 69 184 0.0 0.0 0.00 0.00 0.00 71 1016.4
20260506031513 69 189 0.0 0.0 0.00 0.00 0.00 70 1016.4
20260506030021 68 105 0.0 0.0 0.00 0.00 0.00 69 1016.6
20260506024538 68 130 0.0 0.0 0.00 0.00 0.00 69 1016.7
20260506023024 68 139 0.0 0.0 0.00 0.00 0.00 69 1016.8
20260506021529 68 203 0.0 0.0 0.00 0.00 0.00 69 1016.9
20260506020019 69 220 0.0 0.0 0.00 0.00 0.00 68 1016.8
20260506014522 69 173 0.0 0.0 0.00 0.00 0.00 68 1016.5
20260506013027 69 204 0.0 0.0 0.00 0.00 0.00 67 1016.6
20260506011530 69 151 0.0 0.0 0.00 0.00 0.00 66 1016.6
20260506010016 69 132 0.0 0.0 0.00 0.00 0.00 67 1016.5
20260506004519 69 244 0.0 0.0 0.00 0.00 0.00 68 1016.3
20260506003024 70 126 0.0 0.0 0.00 0.00 0.00 68 1016.4
20260506001527 70 113 0.0 0.0 0.00 0.00 0.00 67 1016.6
20260506000032 70 127 0.0 0.0 0.00 0.00 0.00 66 1016.7
20260505234517 71 129 0.0 0.0 0.00 0.00 0.00 63 1016.4
20260505233022 71 138 0.0 0.0 0.00 0.00 0.00 61 1016.4
20260505231528 72 142 0.0 0.0 0.00 0.00 0.00 60 1016.3
20260505230035 72 185 0.0 0.0 0.00 0.00 0.00 59 1016.5
20260505224527 73 113 0.0 0.0 0.00 0.00 0.00 57 1016.4
20260505223027 74 176 0.0 0.0 0.00 0.00 0.00 55 1016.5
20260505221504 73 238 0.0 0.0 0.00 0.00 0.00 57 1016.7
20260505220008 74 196 0.0 0.0 0.00 0.00 0.00 57 1016.7
20260505214523 74 231 0.0 0.0 0.00 0.00 0.00 59 1016.7
20260505213005 73 170 0.0 0.0 0.00 0.00 0.00 60 1017.0
20260505211506 74 125 0.0 0.0 0.00 0.00 0.00 59 1016.9
20260505210008 74 98 0.0 0.0 0.00 0.00 0.00 59 1016.7
20260505204516 74 131 0.0 0.0 0.00 0.00 0.00 57 1016.6
20260505203018 75 186 0.0 0.0 0.00 0.00 0.00 56 1016.7
20260505201523 75 137 0.0 0.0 0.00 0.00 0.00 56 1016.8
20260505200008 75 132 0.0 0.0 0.00 0.00 0.00 54 1017.1
20260505194508 76 167 0.0 0.0 0.00 0.00 0.00 54 1017.4
20260505193014 75 116 0.0 0.0 0.00 0.00 0.00 54 1017.8
20260505191522 75 250 0.0 0.0 0.00 0.00 0.00 54 1017.9
20260505190004 75 117 0.0 0.0 0.00 0.00 0.00 55 1018.1
20260505184512 75 164 0.0 0.0 0.00 0.00 0.00 54 1018.1
20260505183016 75 105 0.0 0.0 0.00 0.00 0.00 53 1017.8
20260505181519 75 104 0.0 0.0 0.00 0.00 0.00 55 1017.9
20260505180008 75 146 0.0 0.0 0.00 0.00 0.00 54 1017.8
20260505174509 75 211 0.0 0.0 0.00 0.00 0.00 55 1017.7
20260505173029 75 164 0.0 0.0 0.00 0.00 0.00 55 1017.8
20260505171515 75 130 0.0 0.0 0.00 0.00 0.00 55 1018.2
20260505170023 75 241 0.0 0.0 0.00 0.00 0.00 56 1018.3
20260505164506 75 212 0.0 0.0 0.00 0.00 0.00 56 1018.4
20260505163016 74 70 0.0 0.0 0.00 0.00 0.00 59 1018.4
20260505161518 73 195 0.0 0.0 0.00 0.00 0.00 60 1018.6